Date String (YYYY-MM-DD hh:mm:ss) UTC,Instrument flags,Ambient pressure (hPa),Sample flow (lpm),Bypass flow (lpm),Sample temperature (°C),Ambient temperature (°C),ASC tube jacket temperature (°C),LED temperature (°C),Box temperature (°C),Sample RH (%),Span deviation,Mass concentration (μg/m³),Mass concentration (μg/m³),Mass concentration (μg/m³)
DateTimeUTC,F1_M11,P_M11,Q1_M11,Q2_M11,T1_M11,T2_M11,T3_M11,T4_M11,T5_M11,U1_M11,ZSPAN_M11,X0_M11,X2_M11,X1_M11
2022-07-26 20:00:00,,0828.8,4.99,0.00,29.2,27.6,00.0,37.9,31.1,32.2,0000.0,0015.62,0008.96,0007.93
2022-07-26 20:01:00,,0828.8,5.00,0.00,29.3,27.8,00.0,37.9,31.1,32.2,0000.0,0016.02,0009.04,0007.98
2022-07-26 20:02:00,,0829.2,4.99,0.00,29.3,28.0,00.0,38.0,31.2,31.9,0000.0,0016.55,0009.08,0008.01
2022-07-26 20:03:00,,0829.0,5.01,0.00,29.3,28.2,00.0,38.0,31.3,32.2,0000.0,0016.55,0009.07,0008.02
2022-07-26 20:04:00,,0828.9,5.00,0.00,29.4,28.2,00.0,38.0,31.4,32.1,0000.0,0017.37,0009.13,0008.03
2022-07-26 20:05:00,,0828.7,5.00,0.00,29.4,27.7,00.0,38.0,31.3,32.0,0000.0,0017.83,0009.13,0008.04
2022-07-26 20:06:00,,0828.7,4.99,0.00,29.3,27.2,00.0,37.9,31.2,32.0,0000.0,0016.98,0009.11,0008.05
2022-07-26 20:07:00,,0828.9,5.01,0.00,29.3,27.0,00.0,37.9,31.1,32.4,0000.0,0016.63,0009.06,0008.05
2022-07-26 20:08:00,,0829.1,4.99,0.00,29.2,27.1,00.0,37.9,31.0,32.3,0000.0,0016.20,0009.03,0008.04
2022-07-26 20:09:00,,0828.8,5.01,0.00,29.2,27.3,00.0,37.9,31.0,32.4,0000.0,0016.20,0009.04,0008.04
2022-07-26 20:10:00,,0828.8,5.00,0.00,29.2,27.5,00.0,37.9,31.0,32.5,0000.0,0016.50,0009.03,0008.01
2022-07-26 20:11:00,,0828.9,4.99,0.00,29.2,27.7,00.0,37.9,31.1,32.8,0000.0,0016.83,0009.00,0007.99
2022-07-26 20:12:00,,0828.7,4.99,0.00,29.3,27.9,00.0,37.9,31.2,32.9,0000.0,0017.07,0008.93,0007.99
2022-07-26 20:13:00,,0828.5,5.01,0.00,29.3,28.0,00.0,38.0,31.2,32.9,0000.0,0016.33,0008.85,0007.97
2022-07-26 20:14:00,,0828.5,5.01,0.00,29.4,28.2,00.0,38.0,31.3,32.3,0000.0,0016.32,0008.87,0007.97
2022-07-26 20:15:00,,0828.6,4.99,0.00,29.4,28.2,00.0,38.0,31.4,32.0,0000.0,0015.85,0008.87,0007.99
2022-07-26 20:16:00,,0829.0,5.02,0.00,29.4,27.6,00.0,37.9,31.3,32.7,0000.0,0015.02,0008.86,0007.99
2022-07-26 20:17:00,,0829.0,4.99,0.00,29.3,27.2,00.0,37.9,31.2,32.7,0000.0,0015.42,0008.92,0008.01
2022-07-26 20:18:00,,0828.7,5.00,0.00,29.3,27.1,00.0,37.9,31.1,32.5,0000.0,0016.14,0008.94,0008.01
2022-07-26 20:19:00,,0828.8,4.99,0.00,29.2,27.2,00.0,37.9,31.0,32.6,0000.0,0016.85,0008.98,0008.01
2022-07-26 20:20:00,,0828.6,5.00,0.00,29.2,27.4,00.0,37.9,31.0,33.2,0000.0,0017.41,0008.95,0008.02
2022-07-26 20:21:00,,0828.7,5.00,0.00,29.2,27.6,00.0,37.9,31.1,33.0,0000.0,0018.15,0008.95,0008.03
2022-07-26 20:22:00,,0828.8,5.01,0.00,29.3,27.8,00.0,38.0,31.1,33.8,0000.0,0017.43,0008.89,0008.01
2022-07-26 20:23:00,,0828.7,5.00,0.00,29.3,28.0,00.0,38.0,31.2,33.0,0000.0,0016.65,0008.90,0007.97
2022-07-26 20:24:00,,0828.9,5.01,0.00,29.3,28.1,00.0,38.0,31.3,33.5,0000.0,0016.77,0008.88,0007.95
2022-07-26 20:25:00,,0829.0,4.99,0.00,29.4,28.3,00.0,38.0,31.4,33.7,0000.0,0016.98,0008.84,0007.90
2022-07-26 20:26:00,,0828.8,5.02,0.00,29.4,28.1,00.0,38.0,31.4,33.3,0000.0,0017.95,0008.78,0007.86
2022-07-26 20:27:00,,0828.9,4.99,0.00,29.4,27.5,00.0,37.9,31.3,34.7,0000.0,0018.36,0008.78,0007.85
2022-07-26 20:28:00,,0829.0,5.01,0.00,29.4,27.2,00.0,37.9,31.2,35.0,0000.0,0018.70,0008.78,0007.85
2022-07-26 20:29:00,,0829.0,4.99,0.00,29.4,27.2,00.0,37.9,31.2,34.4,0000.0,0018.70,0008.77,0007.83
2022-07-26 20:30:00,,0829.1,5.00,0.00,29.5,27.3,00.0,37.9,31.1,34.3,0000.0,0017.81,0008.75,0007.82
2022-07-26 20:31:00,,0828.9,5.00,0.00,29.5,27.5,00.0,38.0,31.1,34.4,0000.0,0017.34,0008.76,0007.80
2022-07-26 20:32:00,,0829.1,4.99,0.00,29.6,27.7,00.0,38.0,31.2,34.5,0000.0,0018.02,0008.77,0007.79
2022-07-26 20:33:00,,0829.1,5.01,0.00,29.6,27.9,00.0,38.0,31.3,34.3,0000.0,0018.98,0008.84,0007.81
2022-07-26 20:34:00,,0828.9,4.99,0.00,29.6,28.1,00.0,38.1,31.4,33.7,0000.0,0019.19,0008.85,0007.83
2022-07-26 20:35:00,,0829.0,4.99,0.00,29.7,28.2,00.0,38.1,31.4,33.0,0000.0,0019.25,0008.87,0007.82
2022-07-26 20:36:00,,0829.1,5.00,0.00,29.7,27.7,00.0,38.1,31.4,32.6,0000.0,0018.96,0008.88,0007.83
2022-07-26 20:37:00,,0828.9,5.01,0.00,29.7,27.2,00.0,38.0,31.3,33.1,0000.0,0017.85,0008.86,0007.81
2022-07-26 20:38:00,,0828.5,4.99,0.00,29.6,27.1,00.0,38.0,31.2,33.4,0000.0,0018.75,0008.81,0007.77
2022-07-26 20:39:00,,0828.5,5.00,0.00,29.6,27.2,00.0,38.1,31.0,33.4,0000.0,0019.04,0008.78,0007.74
2022-07-26 20:40:00,,0828.6,5.01,0.00,29.5,27.3,00.0,38.1,31.1,32.9,0000.0,0018.62,0008.80,0007.74
2022-07-26 20:41:00,,0828.9,5.00,0.00,29.5,27.5,00.0,38.1,31.1,33.5,0000.0,0018.89,0008.80,0007.74
2022-07-26 20:42:00,,0828.9,4.99,0.00,29.5,27.7,00.0,38.1,31.2,33.5,0000.0,0018.48,0008.79,0007.73
2022-07-26 20:43:00,,0829.1,5.00,0.00,29.6,27.9,00.0,38.1,31.3,33.7,0000.0,0016.86,0008.79,0007.73
2022-07-26 20:44:00,,0828.9,5.00,0.00,29.6,28.1,00.0,38.1,31.4,33.7,0000.0,0016.13,0008.80,0007.73
2022-07-26 20:45:00,,0829.1,5.00,0.00,29.6,28.3,00.0,38.2,31.4,33.2,0000.0,0015.89,0008.81,0007.73
2022-07-26 20:46:00,,0828.7,4.99,0.00,29.6,27.9,00.0,38.1,31.4,32.9,0000.0,0016.15,0008.82,0007.75
2022-07-26 20:47:00,,0828.9,5.00,0.00,29.6,27.3,00.0,38.1,31.3,33.7,0000.0,0017.50,0008.82,0007.75
2022-07-26 20:48:00,,0828.6,5.00,0.00,29.5,27.1,00.0,38.1,31.2,33.3,0000.0,0018.62,0008.84,0007.77
2022-07-26 20:49:00,,0828.6,5.02,0.00,29.5,27.2,00.0,38.1,31.1,33.0,0000.0,0017.54,0008.85,0007.80
2022-07-26 20:50:00,,0828.7,5.00,0.00,29.5,27.3,00.0,38.1,31.1,33.1,0000.0,0016.60,0008.83,0007.81
2022-07-26 20:51:00,,0829.1,4.99,0.00,29.5,27.5,00.0,38.1,31.1,33.3,0000.0,0016.77,0008.83,0007.82
2022-07-26 20:52:00,,0828.8,5.01,0.00,29.5,27.7,00.0,38.1,31.2,33.6,0000.0,0016.99,0008.81,0007.82
2022-07-26 20:53:00,,0829.1,5.01,0.00,29.5,27.9,00.0,38.1,31.3,33.9,0000.0,0017.61,0008.78,0007.84
2022-07-26 20:54:00,,0828.7,5.01,0.00,29.5,28.1,00.0,38.1,31.4,33.0,0000.5,0018.46,0008.80,0007.87
2022-07-26 20:55:00,,0828.7,5.00,0.00,29.6,28.1,00.0,38.1,31.4,33.1,0001.1,0018.81,0008.80,0007.91
2022-07-26 20:56:00,,0828.7,4.99,0.00,29.5,27.5,00.0,38.1,31.3,33.3,0001.0,0019.05,0008.87,0007.95
2022-07-26 20:57:00,,0828.7,4.99,0.00,29.5,27.1,00.0,38.1,31.2,33.8,0000.0,0020.06,0008.97,0007.99
2022-07-26 20:58:00,,0828.7,5.01,0.00,29.4,27.1,00.0,38.1,31.2,33.6,0000.5,0019.29,0009.05,0008.06
2022-07-26 20:59:00,,0828.7,4.99,0.00,29.4,27.2,00.0,38.0,31.1,34.1,0000.1,0018.45,0009.12,0008.12
